Time,TemperatureF,DewpointF,PressureIn,WindDirection,WindDirectionDegrees,WindSpeedMPH,WindSpeedGustMPH,Humidity,HourlyPrecipIn,Conditions,Clouds,dailyrainin,SoftwareType,DateUTC
2013-08-04 00:01:00,70.2,39.0,29.68,WNW,294,0.0,4.9,32,0.00,,---,0.00,VWS V12.07,2013-08-04 04:01:00,
2013-08-04 00:04:00,70.0,38.8,29.68,WNW,294,0.0,4.9,32,0.00,,---,0.00,VWS V12.07,2013-08-04 04:04:00,
2013-08-04 00:07:00,69.8,38.6,29.68,WNW,294,0.0,4.9,32,0.00,,---,0.00,VWS V12.07,2013-08-04 04:07:00,
2013-08-04 00:10:00,69.8,38.6,29.68,WNW,294,2.7,4.9,32,0.00,,---,0.00,VWS V12.07,2013-08-04 04:10:00,
2013-08-04 00:16:00,69.6,39.3,29.68,WNW,294,3.1,3.1,33,0.00,,---,0.00,VWS V12.07,2013-08-04 04:16:00,
2013-08-04 00:22:00,69.4,39.1,29.68,WNW,292,0.0,5.4,33,0.00,,---,0.00,VWS V12.07,2013-08-04 04:22:00,
2013-08-04 00:30:00,69.3,39.0,29.68,WNW,295,0.0,0.0,33,0.00,,---,0.00,VWS V12.07,2013-08-04 04:30:00,
2013-08-04 00:36:00,69.1,38.0,29.68,West,276,0.0,4.0,32,0.00,,---,0.00,VWS V12.07,2013-08-04 04:36:00,
2013-08-04 00:39:00,69.1,38.0,29.68,NW,325,3.6,4.0,32,0.00,,---,0.00,VWS V12.07,2013-08-04 04:39:00,
2013-08-04 00:45:00,68.9,37.8,29.68,NW,325,0.0,0.0,32,0.00,,---,0.00,VWS V12.07,2013-08-04 04:45:00,
2013-08-04 00:51:00,68.9,37.8,29.68,NW,325,0.0,0.0,32,0.00,,---,0.00,VWS V12.07,2013-08-04 04:51:00,
2013-08-04 00:57:00,68.7,37.7,29.65,NW,325,0.0,0.0,32,0.00,,---,0.00,VWS V12.07,2013-08-04 04:57:00,
2013-08-04 01:03:00,68.7,37.7,29.65,NW,325,0.0,0.0,32,0.00,,---,0.00,VWS V12.07,2013-08-04 05:03:00,
2013-08-04 01:09:00,68.5,37.5,29.65,NW,325,0.0,0.0,32,0.00,,---,0.00,VWS V12.07,2013-08-04 05:09:00,
2013-08-04 01:15:00,68.5,37.5,29.65,NW,325,0.0,0.0,32,0.00,,---,0.00,VWS V12.07,2013-08-04 05:15:00,
2013-08-04 01:21:00,68.4,37.4,29.65,NW,325,0.0,0.0,32,0.00,,---,0.00,VWS V12.07,2013-08-04 05:21:00,
2013-08-04 01:26:00,68.4,37.4,29.65,NW,325,0.0,2.7,32,0.00,,---,0.00,VWS V12.07,2013-08-04 05:26:00,
2013-08-04 01:32:00,68.2,37.2,29.65,NW,325,0.0,0.0,32,0.00,,---,0.00,VWS V12.07,2013-08-04 05:32:00,
2013-08-04 01:38:00,68.0,37.1,29.65,NW,325,0.0,0.0,32,0.00,,---,0.00,VWS V12.07,2013-08-04 05:38:00,
2013-08-04 01:44:00,67.6,37.5,29.65,NW,325,0.0,0.0,33,0.00,,---,0.00,VWS V12.07,2013-08-04 05:44:00,
2013-08-04 01:50:00,67.3,37.2,29.65,NW,325,0.0,0.0,33,0.00,,---,0.00,VWS V12.07,2013-08-04 05:50:00,
2013-08-04 01:56:00,67.3,37.2,29.65,NW,325,0.0,0.0,33,0.00,,---,0.00,VWS V12.07,2013-08-04 05:56:00,
2013-08-04 02:02:00,66.9,36.1,29.65,WNW,294,0.0,3.6,32,0.00,,---,0.00,VWS V12.07,2013-08-04 06:02:00,
2013-08-04 02:08:00,66.9,36.1,29.65,WNW,295,0.0,3.6,32,0.00,,---,0.00,VWS V12.07,2013-08-04 06:08:00,
2013-08-04 02:14:00,66.9,36.1,29.65,WNW,300,0.0,3.6,32,0.00,,---,0.00,VWS V12.07,2013-08-04 06:14:00,
2013-08-04 02:19:00,66.7,36.0,29.65,WNW,300,0.0,0.0,32,0.00,,---,0.00,VWS V12.07,2013-08-04 06:19:00,
2013-08-04 02:26:00,66.7,36.0,29.65,WNW,301,0.0,0.0,32,0.00,,---,0.00,VWS V12.07,2013-08-04 06:26:00,
2013-08-04 02:32:00,66.6,35.8,29.65,WNW,300,0.0,0.0,32,0.00,,---,0.00,VWS V12.07,2013-08-04 06:32:00,
2013-08-04 02:38:00,66.6,36.6,29.65,WNW,301,0.0,0.0,33,0.00,,---,0.00,VWS V12.07,2013-08-04 06:38:00,
2013-08-04 02:44:00,66.4,36.4,29.65,WNW,300,0.0,0.0,33,0.00,,---,0.00,VWS V12.07,2013-08-04 06:44:00,
2013-08-04 02:50:00,66.2,36.3,29.65,WNW,301,0.0,0.0,33,0.00,,---,0.00,VWS V12.07,2013-08-04 06:50:00,
2013-08-04 02:56:00,66.2,36.3,29.65,WNW,301,0.0,0.0,33,0.00,,---,0.00,VWS V12.07,2013-08-04 06:56:00,
2013-08-04 03:04:00,66.0,36.1,29.65,WNW,301,0.0,0.0,33,0.00,,---,0.00,VWS V12.07,2013-08-04 07:04:00,
2013-08-04 03:10:00,66.0,36.1,29.65,WNW,301,0.0,0.0,33,0.00,,---,0.00,VWS V12.07,2013-08-04 07:10:00,
2013-08-04 03:16:00,66.0,36.1,29.65,WNW,301,0.0,0.0,33,0.00,,---,0.00,VWS V12.07,2013-08-04 07:16:00,
2013-08-04 03:22:00,65.8,36.0,29.65,WNW,300,0.0,0.0,33,0.00,,---,0.00,VWS V12.07,2013-08-04 07:22:00,
2013-08-04 03:28:00,65.8,36.0,29.65,WNW,301,0.0,2.7,33,0.00,,---,0.00,VWS V12.07,2013-08-04 07:28:00,
2013-08-04 03:34:00,65.7,35.8,29.65,WNW,301,0.0,0.0,33,0.00,,---,0.00,VWS V12.07,2013-08-04 07:34:00,
2013-08-04 03:40:00,65.5,35.6,29.65,WNW,301,0.0,0.0,33,0.00,,---,0.00,VWS V12.07,2013-08-04 07:40:00,
2013-08-04 03:46:00,65.1,35.3,29.65,WNW,300,0.0,0.0,33,0.00,,---,0.00,VWS V12.07,2013-08-04 07:46:00,
2013-08-04 03:52:00,65.1,35.3,29.65,WNW,301,0.0,0.0,33,0.00,,---,0.00,VWS V12.07,2013-08-04 07:52:00,
2013-08-04 03:58:00,64.9,34.4,29.65,WNW,301,0.0,3.1,32,0.00,,---,0.00,VWS V12.07,2013-08-04 07:58:00,
2013-08-04 04:04:00,64.8,34.2,29.65,WNW,301,0.0,0.0,32,0.00,,---,0.00,VWS V12.07,2013-08-04 08:04:00,
2013-08-04 04:10:00,64.8,34.2,29.65,WNW,301,0.0,0.0,32,0.00,,---,0.00,VWS V12.07,2013-08-04 08:10:00,
2013-08-04 04:18:00,64.8,35.0,29.65,WNW,301,0.0,0.0,33,0.00,,---,0.00,VWS V12.07,2013-08-04 08:18:00,
2013-08-04 04:24:00,64.8,35.0,29.65,WNW,301,0.0,0.0,33,0.00,,---,0.00,VWS V12.07,2013-08-04 08:24:00,
2013-08-04 04:29:00,64.8,35.0,29.65,WNW,300,0.0,0.0,33,0.00,,---,0.00,VWS V12.07,2013-08-04 08:29:00,
2013-08-04 04:35:00,64.8,35.0,29.65,WNW,300,0.0,0.0,33,0.00,,---,0.00,VWS V12.07,2013-08-04 08:35:00,
2013-08-04 04:41:00,64.6,34.8,29.65,WNW,300,0.0,0.0,33,0.00,,---,0.00,VWS V12.07,2013-08-04 08:41:00,
2013-08-04 04:47:00,64.4,34.7,29.65,WNW,300,0.0,0.0,33,0.00,,---,0.00,VWS V12.07,2013-08-04 08:47:00,
2013-08-04 04:53:00,64.4,34.7,29.65,WNW,301,0.0,0.0,33,0.00,,---,0.00,VWS V12.07,2013-08-04 08:53:00,
2013-08-04 04:59:00,64.4,34.7,29.65,WNW,300,0.0,0.0,33,0.00,,---,0.00,VWS V12.07,2013-08-04 08:59:00,
2013-08-04 05:05:00,64.2,34.5,29.65,WNW,300,0.0,0.0,33,0.00,,---,0.00,VWS V12.07,2013-08-04 09:05:00,
2013-08-04 05:11:00,64.0,35.1,29.65,WNW,300,0.0,0.0,34,0.00,,---,0.00,VWS V12.07,2013-08-04 09:11:00,
2013-08-04 05:17:00,63.9,35.0,29.65,WNW,301,0.0,0.0,34,0.00,,---,0.00,VWS V12.07,2013-08-04 09:17:00,
2013-08-04 05:23:00,63.9,35.0,29.65,WNW,300,0.0,0.0,34,0.00,,---,0.00,VWS V12.07,2013-08-04 09:23:00,
2013-08-04 05:29:00,63.7,34.8,29.65,WNW,300,0.0,0.0,34,0.00,,---,0.00,VWS V12.07,2013-08-04 09:29:00,
2013-08-04 05:35:00,63.7,34.8,29.65,WNW,300,0.0,0.0,34,0.00,,---,0.00,VWS V12.07,2013-08-04 09:35:00,
2013-08-04 05:41:00,63.7,34.8,29.65,WNW,301,0.0,0.0,34,0.00,,---,0.00,VWS V12.07,2013-08-04 09:41:00,
2013-08-04 05:47:00,63.7,34.1,29.65,WNW,300,3.1,3.1,33,0.00,,---,0.00,VWS V12.07,2013-08-04 09:47:00,
2013-08-04 05:53:00,63.9,34.2,29.65,WSW,246,0.0,3.1,33,0.00,,---,0.00,VWS V12.07,2013-08-04 09:53:00,
2013-08-04 05:59:00,63.9,34.2,29.65,WSW,245,0.0,3.1,33,0.00,,---,0.00,VWS V12.07,2013-08-04 09:59:00,
2013-08-04 06:05:00,63.9,34.2,29.65,NW,309,0.0,5.4,33,0.00,,---,0.00,VWS V12.07,2013-08-04 10:05:00,
2013-08-04 06:11:00,63.9,34.2,29.65,NW,308,0.0,5.4,33,0.00,,---,0.00,VWS V12.07,2013-08-04 10:11:00,
2013-08-04 06:17:00,63.9,33.5,29.65,NW,304,0.0,0.0,32,0.00,,---,0.00,VWS V12.07,2013-08-04 10:17:00,
2013-08-04 06:23:00,63.9,33.5,29.65,SW,236,0.0,2.7,32,0.00,,---,0.00,VWS V12.07,2013-08-04 10:23:00,
2013-08-04 06:28:00,63.9,34.2,29.65,NW,324,0.0,2.7,33,0.00,,---,0.00,VWS V12.07,2013-08-04 10:28:00,
2013-08-04 06:34:00,63.9,33.5,29.65,WNW,299,0.0,3.1,32,0.00,,---,0.00,VWS V12.07,2013-08-04 10:34:00,
2013-08-04 06:40:00,64.0,34.4,29.65,WNW,287,0.0,4.0,33,0.00,,---,0.00,VWS V12.07,2013-08-04 10:40:00,
2013-08-04 06:46:00,64.0,34.4,29.65,WNW,287,0.0,0.0,33,0.00,,---,0.00,VWS V12.07,2013-08-04 10:46:00,
2013-08-04 06:52:00,64.2,34.5,29.65,WNW,287,0.0,0.0,33,0.00,,---,0.00,VWS V12.07,2013-08-04 10:52:00,
2013-08-04 06:58:00,64.6,34.8,29.65,WNW,287,0.0,0.0,33,0.00,,---,0.00,VWS V12.07,2013-08-04 10:58:00,
2013-08-04 07:04:00,64.8,35.0,29.65,West,276,3.6,3.6,33,0.00,,---,0.00,VWS V12.07,2013-08-04 11:04:00,
2013-08-04 07:10:00,64.8,35.0,29.68,WNW,282,0.0,4.0,33,0.00,,---,0.00,VWS V12.07,2013-08-04 11:10:00,
2013-08-04 07:16:00,64.8,35.0,29.68,WNW,282,0.0,0.0,33,0.00,,---,0.00,VWS V12.07,2013-08-04 11:16:00,
2013-08-04 07:22:00,64.9,35.2,29.68,WNW,282,0.0,2.7,33,0.00,,---,0.00,VWS V12.07,2013-08-04 11:22:00,
2013-08-04 07:28:00,64.9,35.2,29.68,WNW,283,2.2,4.0,33,0.00,,---,0.00,VWS V12.07,2013-08-04 11:28:00,
2013-08-04 07:34:00,65.1,35.3,29.68,WNW,288,3.1,6.3,33,0.00,,---,0.00,VWS V12.07,2013-08-04 11:34:00,
2013-08-04 07:40:00,65.5,35.6,29.68,WNW,294,0.0,6.3,33,0.00,,---,0.00,VWS V12.07,2013-08-04 11:40:00,
2013-08-04 07:46:00,65.8,36.0,29.68,NW,310,3.1,5.8,33,0.00,,---,0.00,VWS V12.07,2013-08-04 11:46:00,
2013-08-04 07:52:00,66.0,35.3,29.68,WNW,291,2.7,6.3,32,0.00,,---,0.00,VWS V12.07,2013-08-04 11:52:00,
2013-08-04 07:58:00,66.2,35.5,29.68,West,280,0.0,6.3,32,0.00,,---,0.00,VWS V12.07,2013-08-04 11:58:00,
2013-08-04 08:04:00,66.4,34.9,29.68,WNW,290,2.7,5.4,31,0.00,,---,0.00,VWS V12.07,2013-08-04 12:04:00,
2013-08-04 08:10:00,66.9,35.3,29.68,West,281,2.2,5.4,31,0.00,,---,0.00,VWS V12.07,2013-08-04 12:10:00,
2013-08-04 08:16:00,67.6,35.1,29.68,WSW,241,2.7,3.6,30,0.00,,---,0.00,VWS V12.07,2013-08-04 12:16:00,
2013-08-04 08:22:00,68.9,34.5,29.68,NW,305,2.7,8.3,28,0.00,,---,0.00,VWS V12.07,2013-08-04 12:22:00,
2013-08-04 08:28:00,69.3,32.9,29.68,WNW,298,2.7,8.3,26,0.00,,---,0.00,VWS V12.07,2013-08-04 12:28:00,
2013-08-04 08:34:00,69.6,33.2,29.68,West,266,0.0,4.0,26,0.00,,---,0.00,VWS V12.07,2013-08-04 12:34:00,
2013-08-04 08:40:00,69.8,32.4,29.65,West,271,0.0,4.0,25,0.00,,---,0.00,VWS V12.07,2013-08-04 12:40:00,
2013-08-04 08:46:00,70.3,32.9,29.65,NW,312,0.0,2.7,25,0.00,,---,0.00,VWS V12.07,2013-08-04 12:46:00,
2013-08-04 08:52:00,70.9,33.3,29.65,WNW,298,0.0,4.0,25,0.00,,---,0.00,VWS V12.07,2013-08-04 12:52:00,
2013-08-04 08:58:00,70.7,32.2,29.68,NW,306,0.0,5.4,24,0.00,,---,0.00,VWS V12.07,2013-08-04 12:58:00,
2013-08-04 09:04:00,70.7,32.2,29.68,North,0,0.0,4.0,24,0.00,,---,0.00,VWS V12.07,2013-08-04 13:04:00,
2013-08-04 09:10:00,70.7,32.2,29.68,NW,313,4.0,4.0,24,0.00,,---,0.00,VWS V12.07,2013-08-04 13:10:00,
2013-08-04 09:16:00,70.7,32.2,29.68,WNW,299,2.2,3.6,24,0.00,,---,0.00,VWS V12.07,2013-08-04 13:16:00,
2013-08-04 09:22:00,71.4,32.8,29.68,WNW,292,0.0,5.4,24,0.00,,---,0.00,VWS V12.07,2013-08-04 13:22:00,
2013-08-04 09:28:00,72.1,33.4,29.68,WNW,291,0.0,5.4,24,0.00,,---,0.00,VWS V12.07,2013-08-04 13:28:00,
2013-08-04 09:34:00,72.5,32.6,29.68,West,268,3.6,4.9,23,0.00,,---,0.00,VWS V12.07,2013-08-04 13:34:00,
2013-08-04 09:40:00,72.7,32.8,29.65,WNW,302,5.8,5.8,23,0.00,,---,0.00,VWS V12.07,2013-08-04 13:40:00,
2013-08-04 09:46:00,72.9,32.9,29.65,NW,318,0.0,0.0,23,0.00,,---,0.00,VWS V12.07,2013-08-04 13:46:00,
2013-08-04 09:52:00,73.0,33.1,29.65,NW,321,0.0,5.8,23,0.00,,---,0.00,VWS V12.07,2013-08-04 13:52:00,
2013-08-04 09:58:00,73.9,32.7,29.65,WNW,290,0.0,5.8,22,0.00,,---,0.00,VWS V12.07,2013-08-04 13:58:00,
2013-08-04 10:04:00,75.4,33.9,29.65,NNW,329,6.3,6.3,22,0.00,,---,0.00,VWS V12.07,2013-08-04 14:04:00,
2013-08-04 10:10:00,75.9,33.2,29.65,NW,315,0.0,6.3,21,0.00,,---,0.00,VWS V12.07,2013-08-04 14:10:00,
2013-08-04 10:16:00,75.7,33.1,29.65,WNW,301,4.0,4.9,21,0.00,,---,0.00,VWS V12.07,2013-08-04 14:16:00,
2013-08-04 10:22:00,75.2,32.6,29.65,WNW,301,2.2,6.3,21,0.00,,---,0.00,VWS V12.07,2013-08-04 14:22:00,
2013-08-04 10:28:00,75.0,33.6,29.65,WNW,301,3.6,6.3,22,0.00,,---,0.00,VWS V12.07,2013-08-04 14:28:00,
2013-08-04 10:34:00,74.8,32.3,29.65,West,277,5.4,5.4,21,0.00,,---,0.00,VWS V12.07,2013-08-04 14:34:00,
2013-08-04 10:39:00,74.8,32.3,29.65,West,268,0.0,5.4,21,0.00,,---,0.00,VWS V12.07,2013-08-04 14:39:00,
2013-08-04 10:47:00,75.0,32.5,29.65,SSE,158,0.0,4.9,21,0.00,,---,0.00,VWS V12.07,2013-08-04 14:47:00,
2013-08-04 10:53:00,75.4,32.8,29.65,WNW,302,0.0,4.9,21,0.00,,---,0.00,VWS V12.07,2013-08-04 14:53:00,
2013-08-04 10:59:00,75.6,32.9,29.65,North,0,0.0,4.9,21,0.00,,---,0.00,VWS V12.07,2013-08-04 14:59:00,
2013-08-04 11:05:00,75.7,33.1,29.65,NW,309,6.3,6.3,21,0.00,,---,0.00,VWS V12.07,2013-08-04 15:05:00,
2013-08-04 11:12:00,75.9,33.2,29.65,NW,313,5.4,6.3,21,0.00,,---,0.00,VWS V12.07,2013-08-04 15:12:00,
2013-08-04 11:18:00,76.3,33.5,29.65,WNW,298,0.0,5.8,21,0.00,,---,0.00,VWS V12.07,2013-08-04 15:18:00,
2013-08-04 11:24:00,76.6,33.8,29.65,WNW,295,4.5,5.8,21,0.00,,---,0.00,VWS V12.07,2013-08-04 15:24:00,
2013-08-04 11:30:00,76.8,34.0,29.65,WSW,251,4.0,7.6,21,0.00,,---,0.00,VWS V12.07,2013-08-04 15:30:00,
2013-08-04 11:36:00,77.0,34.1,29.65,SSE,153,0.0,7.6,21,0.00,,---,0.00,VWS V12.07,2013-08-04 15:36:00,
2013-08-04 11:42:00,77.4,34.4,29.65,NW,311,0.0,7.6,21,0.00,,---,0.00,VWS V12.07,2013-08-04 15:42:00,
2013-08-04 11:48:00,77.5,34.6,29.65,West,263,0.0,4.0,21,0.00,,---,0.00,VWS V12.07,2013-08-04 15:48:00,
2013-08-04 11:54:00,78.3,35.2,29.65,West,273,0.0,5.8,21,0.00,,---,0.00,VWS V12.07,2013-08-04 15:54:00,
2013-08-04 12:00:00,78.3,33.9,29.65,West,273,0.0,0.0,20,0.00,,---,0.00,VWS V12.07,2013-08-04 16:00:00,
2013-08-04 12:06:00,78.6,35.5,29.65,NW,310,4.0,6.3,21,0.00,,---,0.00,VWS V12.07,2013-08-04 16:06:00,
2013-08-04 12:12:00,79.0,34.5,29.65,WNW,283,0.0,6.3,20,0.00,,---,0.00,VWS V12.07,2013-08-04 16:12:00,
2013-08-04 12:18:00,79.7,35.1,29.65,SSW,192,0.0,4.0,20,0.00,,---,0.00,VWS V12.07,2013-08-04 16:18:00,
2013-08-04 12:24:00,79.9,35.3,29.65,SW,234,0.0,5.4,20,0.00,,---,0.00,VWS V12.07,2013-08-04 16:24:00,
2013-08-04 12:30:00,79.7,35.1,29.65,NW,311,2.7,2.7,20,0.00,,---,0.00,VWS V12.07,2013-08-04 16:30:00,
2013-08-04 12:36:00,80.1,35.4,29.65,NW,305,2.2,5.4,20,0.00,,---,0.00,VWS V12.07,2013-08-04 16:36:00,
2013-08-04 12:42:00,80.8,34.7,29.65,NW,312,0.0,6.3,19,0.00,,---,0.00,VWS V12.07,2013-08-04 16:42:00,
2013-08-04 12:48:00,81.3,35.2,29.65,South,181,0.0,5.8,19,0.00,,---,0.00,VWS V12.07,2013-08-04 16:48:00,
2013-08-04 12:54:00,81.7,35.5,29.65,SW,235,0.0,6.3,19,0.00,,---,0.00,VWS V12.07,2013-08-04 16:54:00,
2013-08-04 13:00:00,81.9,35.6,29.65,WNW,298,2.2,2.2,19,0.00,,---,0.00,VWS V12.07,2013-08-04 17:00:00,
2013-08-04 13:06:00,81.1,35.0,29.65,West,266,2.2,5.4,19,0.00,,---,0.00,VWS V12.07,2013-08-04 17:06:00,
2013-08-04 13:12:00,81.3,35.2,29.65,SSW,196,0.0,5.4,19,0.00,,---,0.00,VWS V12.07,2013-08-04 17:12:00,
2013-08-04 13:18:00,81.0,34.9,29.65,West,271,4.0,4.0,19,0.00,,---,0.00,VWS V12.07,2013-08-04 17:18:00,
2013-08-04 13:24:00,81.5,35.3,29.65,WNW,297,0.0,6.3,19,0.00,,---,0.00,VWS V12.07,2013-08-04 17:24:00,
2013-08-04 13:30:00,81.9,35.6,29.62,West,280,2.7,4.0,19,0.00,,---,0.00,VWS V12.07,2013-08-04 17:30:00,
2013-08-04 13:36:00,81.0,34.9,29.62,NW,312,3.1,6.3,19,0.00,,---,0.00,VWS V12.07,2013-08-04 17:36:00,
2013-08-04 13:42:00,81.3,35.2,29.62,WNW,301,4.9,6.3,19,0.00,,---,0.00,VWS V12.07,2013-08-04 17:42:00,
2013-08-04 13:48:00,82.6,36.2,29.62,WNW,294,4.0,5.4,19,0.00,,---,0.00,VWS V12.07,2013-08-04 17:48:00,
2013-08-04 13:54:00,83.3,32.5,29.62,NNW,337,3.1,6.7,16,0.00,,---,0.00,VWS V12.07,2013-08-04 17:54:00,
2013-08-04 14:00:00,83.8,32.9,29.62,WSW,241,4.9,4.9,16,0.00,,---,0.00,VWS V12.07,2013-08-04 18:00:00,
2013-08-04 14:06:00,83.8,32.9,29.62,SW,232,2.2,5.8,16,0.00,,---,0.00,VWS V12.07,2013-08-04 18:06:00,
2013-08-04 14:12:00,82.9,32.2,29.62,West,263,0.0,5.8,16,0.00,,---,0.00,VWS V12.07,2013-08-04 18:12:00,
2013-08-04 14:18:00,83.3,32.5,29.62,WNW,291,2.2,5.4,16,0.00,,---,0.00,VWS V12.07,2013-08-04 18:18:00,
2013-08-04 14:24:00,84.0,33.0,29.62,West,280,4.0,5.8,16,0.00,,---,0.00,VWS V12.07,2013-08-04 18:24:00,
2013-08-04 14:30:00,84.6,33.5,29.62,NW,308,0.0,0.0,16,0.00,,---,0.00,VWS V12.07,2013-08-04 18:30:00,
2013-08-04 14:37:00,84.7,33.6,29.62,NW,310,0.0,6.3,16,0.00,,---,0.00,VWS V12.07,2013-08-04 18:37:00,
2013-08-04 14:43:00,83.7,32.8,29.62,SSW,196,0.0,6.3,16,0.00,,---,0.00,VWS V12.07,2013-08-04 18:43:00,
2013-08-04 14:49:00,84.0,33.0,29.62,WNW,294,3.6,6.3,16,0.00,,---,0.00,VWS V12.07,2013-08-04 18:49:00,
2013-08-04 14:55:00,84.9,33.8,29.59,WNW,291,0.0,6.3,16,0.00,,---,0.00,VWS V12.07,2013-08-04 18:55:00,
2013-08-04 15:01:00,85.3,34.1,29.59,SE,124,0.0,2.7,16,0.00,,---,0.00,VWS V12.07,2013-08-04 19:01:00,
2013-08-04 15:08:00,84.4,33.3,29.59,West,268,0.0,3.1,16,0.00,,---,0.00,VWS V12.07,2013-08-04 19:08:00,
2013-08-04 15:14:00,84.2,33.2,29.62,West,272,0.0,3.1,16,0.00,,---,0.00,VWS V12.07,2013-08-04 19:14:00,
2013-08-04 15:20:00,84.2,33.2,29.62,South,178,0.0,3.6,16,0.00,,---,0.00,VWS V12.07,2013-08-04 19:20:00,
2013-08-04 15:26:00,83.8,32.9,29.62,West,278,0.0,4.9,16,0.00,,---,0.00,VWS V12.07,2013-08-04 19:26:00,
2013-08-04 15:32:00,82.8,32.0,29.62,WNW,292,0.0,5.4,16,0.00,,---,0.00,VWS V12.07,2013-08-04 19:32:00,
2013-08-04 15:38:00,81.5,32.5,29.62,West,276,0.0,6.3,17,0.00,,---,0.00,VWS V12.07,2013-08-04 19:38:00,
2013-08-04 15:44:00,80.6,31.8,29.62,NNW,344,0.0,6.3,17,0.00,,---,0.00,VWS V12.07,2013-08-04 19:44:00,
2013-08-04 15:50:00,80.1,31.4,29.62,WNW,290,0.0,5.8,17,0.00,,---,0.00,VWS V12.07,2013-08-04 19:50:00,
2013-08-04 15:59:00,80.2,31.5,29.62,NW,305,0.0,5.8,17,0.00,,---,0.00,VWS V12.07,2013-08-04 19:59:00,
2013-08-04 16:05:00,80.8,32.0,29.62,ESE,114,0.0,3.6,17,0.00,,---,0.00,VWS V12.07,2013-08-04 20:05:00,
2013-08-04 16:11:00,81.5,32.5,29.59,WNW,289,0.0,5.4,17,0.00,,---,0.00,VWS V12.07,2013-08-04 20:11:00,
2013-08-04 16:17:00,82.0,33.0,29.59,West,268,0.0,5.8,17,0.00,,---,0.00,VWS V12.07,2013-08-04 20:17:00,
2013-08-04 16:23:00,82.6,31.9,29.59,NW,308,3.6,5.8,16,0.00,,---,0.00,VWS V12.07,2013-08-04 20:23:00,
2013-08-04 16:30:00,82.8,32.0,29.59,WSW,247,0.0,0.0,16,0.00,,---,0.00,VWS V12.07,2013-08-04 20:30:00,
2013-08-04 16:36:00,82.6,31.9,29.59,NW,311,0.0,6.3,16,0.00,,---,0.00,VWS V12.07,2013-08-04 20:36:00,
2013-08-04 16:42:00,82.2,33.1,29.62,WNW,296,3.6,6.3,17,0.00,,---,0.00,VWS V12.07,2013-08-04 20:42:00,
2013-08-04 16:48:00,81.7,32.7,29.62,NW,326,3.6,3.6,17,0.00,,---,0.00,VWS V12.07,2013-08-04 20:48:00,
2013-08-04 16:53:00,81.3,32.4,29.62,NW,313,2.7,3.6,17,0.00,,---,0.00,VWS V12.07,2013-08-04 20:53:00,
2013-08-04 16:59:00,81.1,32.2,29.62,SW,233,5.8,6.3,17,0.00,,---,0.00,VWS V12.07,2013-08-04 20:59:00,
2013-08-04 17:05:00,81.0,32.1,29.62,West,265,3.1,3.6,17,0.00,,---,0.00,VWS V12.07,2013-08-04 21:05:00,
2013-08-04 17:11:00,80.2,31.5,29.62,West,279,4.5,4.9,17,0.00,,---,0.00,VWS V12.07,2013-08-04 21:11:00,
2013-08-04 17:17:00,79.7,31.1,29.62,NW,312,0.0,0.0,17,0.00,,---,0.00,VWS V12.07,2013-08-04 21:17:00,
2013-08-04 17:23:00,79.0,30.5,29.62,WSW,250,3.1,4.0,17,0.00,,---,0.00,VWS V12.07,2013-08-04 21:23:00,
2013-08-04 17:29:00,78.6,31.6,29.62,NW,326,3.1,5.4,18,0.00,,---,0.00,VWS V12.07,2013-08-04 21:29:00,
2013-08-04 17:35:00,78.1,31.2,29.62,WNW,283,3.1,8.7,18,0.00,,---,0.00,VWS V12.07,2013-08-04 21:35:00,
2013-08-04 17:41:00,76.1,33.4,29.65,NW,321,2.7,8.7,21,0.00,,---,0.00,VWS V12.07,2013-08-04 21:41:00,
2013-08-04 17:46:00,74.1,34.0,29.65,North,353,0.0,2.7,23,0.00,,---,0.00,VWS V12.07,2013-08-04 21:46:00,
2013-08-04 17:52:00,72.0,34.2,29.65,East,81,0.0,2.7,25,0.00,,---,0.00,VWS V12.07,2013-08-04 21:52:00,
2013-08-04 17:58:00,70.9,36.2,29.65,East,81,0.0,2.7,28,0.00,,---,0.00,VWS V12.07,2013-08-04 21:58:00,
2013-08-04 18:04:00,70.2,39.0,29.65,East,81,0.0,0.0,32,0.00,,---,0.00,VWS V12.07,2013-08-04 22:04:00,
2013-08-04 18:10:00,69.8,39.4,29.65,East,82,0.0,0.0,33,0.00,,---,0.00,VWS V12.07,2013-08-04 22:10:00,
2013-08-04 18:16:00,69.8,39.4,29.65,East,83,0.0,0.0,33,0.00,,---,0.00,VWS V12.07,2013-08-04 22:16:00,
2013-08-04 18:22:00,69.8,40.9,29.65,East,82,0.0,0.0,35,0.00,,---,0.00,VWS V12.07,2013-08-04 22:22:00,
2013-08-04 18:28:00,69.8,40.9,29.65,East,83,0.0,0.0,35,0.00,,---,0.00,VWS V12.07,2013-08-04 22:28:00,
2013-08-04 18:34:00,69.6,41.5,29.65,East,83,0.0,0.0,36,0.00,,---,0.00,VWS V12.07,2013-08-04 22:34:00,
2013-08-04 18:40:00,69.6,42.2,29.65,NW,317,0.0,2.2,37,0.00,,---,0.00,VWS V12.07,2013-08-04 22:40:00,
2013-08-04 18:46:00,69.4,42.1,29.65,NW,317,0.0,0.0,37,0.00,,---,0.00,VWS V12.07,2013-08-04 22:46:00,
2013-08-04 18:52:00,69.4,42.8,29.65,NW,318,0.0,0.0,38,0.00,,---,0.00,VWS V12.07,2013-08-04 22:52:00,
2013-08-04 18:59:00,69.3,42.6,29.65,NW,317,0.0,0.0,38,0.00,,---,0.00,VWS V12.07,2013-08-04 22:59:00,
2013-08-04 19:05:00,69.1,43.1,29.65,NW,317,0.0,0.0,39,0.00,,---,0.00,VWS V12.07,2013-08-04 23:05:00,
2013-08-04 19:11:00,68.9,43.0,29.65,NW,317,0.0,0.0,39,0.00,,---,0.00,VWS V12.07,2013-08-04 23:11:00,
2013-08-04 19:17:00,68.7,43.5,29.65,NW,317,0.0,0.0,40,0.00,,---,0.00,VWS V12.07,2013-08-04 23:17:00,
2013-08-04 19:23:00,68.7,43.5,29.65,NW,317,0.0,0.0,40,0.00,,---,0.00,VWS V12.07,2013-08-04 23:23:00,
2013-08-04 19:29:00,68.5,43.3,29.65,NW,317,0.0,0.0,40,0.00,,---,0.00,VWS V12.07,2013-08-04 23:29:00,
2013-08-04 19:35:00,68.5,43.9,29.65,NW,317,0.0,0.0,41,0.00,,---,0.00,VWS V12.07,2013-08-04 23:35:00,
2013-08-04 19:41:00,68.4,43.8,29.65,NW,317,0.0,0.0,41,0.00,,---,0.00,VWS V12.07,2013-08-04 23:41:00,
2013-08-04 19:47:00,68.4,43.8,29.65,NW,317,0.0,0.0,41,0.00,,---,0.00,VWS V12.07,2013-08-04 23:47:00,
2013-08-04 19:53:00,68.5,43.9,29.65,NW,317,0.0,0.0,41,0.00,,---,0.00,VWS V12.07,2013-08-04 23:53:00,
2013-08-04 19:59:00,68.5,43.9,29.68,NW,317,0.0,0.0,41,0.00,,---,0.00,VWS V12.07,2013-08-04 23:59:00,
2013-08-04 20:05:00,68.5,44.6,29.68,NW,317,0.0,0.0,42,0.00,,---,0.00,VWS V12.07,2013-08-05 00:05:00,
2013-08-04 20:11:00,68.5,44.6,29.68,NW,317,0.0,0.0,42,0.00,,---,0.00,VWS V12.07,2013-08-05 00:11:00,
2013-08-04 20:16:00,68.5,44.6,29.68,NW,317,0.0,0.0,42,0.00,,---,0.00,VWS V12.07,2013-08-05 00:16:00,
2013-08-04 20:22:00,68.5,44.6,29.68,NW,317,0.0,0.0,42,0.00,,---,0.00,VWS V12.07,2013-08-05 00:22:00,
2013-08-04 20:28:00,68.4,44.4,29.68,NW,316,0.0,0.0,42,0.00,,---,0.00,VWS V12.07,2013-08-05 00:28:00,
2013-08-04 20:35:00,68.4,43.8,29.68,NW,314,0.0,0.0,41,0.00,,---,0.00,VWS V12.07,2013-08-05 00:35:00,
2013-08-04 20:41:00,68.2,43.6,29.68,NW,314,0.0,0.0,41,0.00,,---,0.00,VWS V12.07,2013-08-05 00:41:00,
2013-08-04 20:47:00,68.0,43.5,29.68,NW,314,0.0,0.0,41,0.00,,---,0.00,VWS V12.07,2013-08-05 00:47:00,
2013-08-04 20:53:00,68.0,42.8,29.68,NW,314,0.0,0.0,40,0.00,,---,0.00,VWS V12.07,2013-08-05 00:53:00,
2013-08-04 20:59:00,67.8,42.6,29.68,NW,314,0.0,0.0,40,0.00,,---,0.00,VWS V12.07,2013-08-05 00:59:00,
2013-08-04 21:05:00,67.8,42.6,29.68,NW,313,0.0,0.0,40,0.00,,---,0.00,VWS V12.07,2013-08-05 01:05:00,
2013-08-04 21:11:00,67.6,42.5,29.71,NW,313,0.0,0.0,40,0.00,,---,0.00,VWS V12.07,2013-08-05 01:11:00,
2013-08-04 21:17:00,67.6,42.5,29.71,NW,314,0.0,0.0,40,0.00,,---,0.00,VWS V12.07,2013-08-05 01:17:00,
2013-08-04 21:23:00,67.5,43.0,29.71,NW,313,0.0,0.0,41,0.00,,---,0.00,VWS V12.07,2013-08-05 01:23:00,
2013-08-04 21:29:00,67.3,42.8,29.71,NW,313,0.0,0.0,41,0.00,,---,0.00,VWS V12.07,2013-08-05 01:29:00,
2013-08-04 21:35:00,66.9,42.5,29.71,NW,313,0.0,0.0,41,0.00,,---,0.00,VWS V12.07,2013-08-05 01:35:00,
2013-08-04 21:41:00,66.7,41.7,29.71,NW,313,0.0,0.0,40,0.00,,---,0.00,VWS V12.07,2013-08-05 01:41:00,
2013-08-04 21:47:00,66.7,41.7,29.71,NW,313,0.0,0.0,40,0.00,,---,0.00,VWS V12.07,2013-08-05 01:47:00,
2013-08-04 21:53:00,66.7,41.0,29.71,NW,313,0.0,0.0,39,0.00,,---,0.00,VWS V12.07,2013-08-05 01:53:00,
2013-08-04 21:59:00,66.7,40.3,29.68,NW,313,0.0,0.0,38,0.00,,---,0.00,VWS V12.07,2013-08-05 01:59:00,
2013-08-04 22:05:00,66.6,40.2,29.68,NW,313,0.0,0.0,38,0.00,,---,0.00,VWS V12.07,2013-08-05 02:05:00,
2013-08-04 22:11:00,66.6,39.5,29.71,NW,313,0.0,0.0,37,0.00,,---,0.00,VWS V12.07,2013-08-05 02:11:00,
2013-08-04 22:17:00,66.6,39.5,29.71,NW,313,0.0,0.0,37,0.00,,---,0.00,VWS V12.07,2013-08-05 02:17:00,
2013-08-04 22:22:00,66.6,38.8,29.71,NW,313,0.0,0.0,36,0.00,,---,0.00,VWS V12.07,2013-08-05 02:22:00,
2013-08-04 22:28:00,66.4,38.6,29.71,NW,313,0.0,0.0,36,0.00,,---,0.00,VWS V12.07,2013-08-05 02:28:00,
2013-08-04 22:34:00,66.2,39.2,29.71,NW,313,0.0,0.0,37,0.00,,---,0.00,VWS V12.07,2013-08-05 02:34:00,
2013-08-04 22:40:00,66.0,39.0,29.71,NW,313,0.0,0.0,37,0.00,,---,0.00,VWS V12.07,2013-08-05 02:40:00,
2013-08-04 22:46:00,65.7,38.7,29.71,WNW,295,0.0,0.0,37,0.00,,---,0.00,VWS V12.07,2013-08-05 02:46:00,
2013-08-04 22:52:00,65.7,38.7,29.71,NW,308,0.0,2.7,37,0.00,,---,0.00,VWS V12.07,2013-08-05 02:52:00,
2013-08-04 22:58:00,65.5,37.8,29.71,NNW,341,0.0,2.7,36,0.00,,---,0.00,VWS V12.07,2013-08-05 02:58:00,
2013-08-04 23:04:00,65.5,37.8,29.71,NNW,341,0.0,0.0,36,0.00,,---,0.00,VWS V12.07,2013-08-05 03:04:00,
2013-08-04 23:10:00,65.5,37.1,29.71,NNW,341,0.0,0.0,35,0.00,,---,0.00,VWS V12.07,2013-08-05 03:10:00,
2013-08-04 23:16:00,65.5,36.4,29.71,WSW,255,0.0,0.0,34,0.00,,---,0.00,VWS V12.07,2013-08-05 03:16:00,
2013-08-04 23:22:00,65.5,36.4,29.71,NW,311,0.0,3.1,34,0.00,,---,0.00,VWS V12.07,2013-08-05 03:22:00,
2013-08-04 23:29:00,65.5,36.4,29.71,West,276,0.0,3.1,34,0.00,,---,0.00,VWS V12.07,2013-08-05 03:29:00,
2013-08-04 23:35:00,65.3,35.5,29.71,West,276,0.0,2.2,33,0.00,,---,0.00,VWS V12.07,2013-08-05 03:35:00,
2013-08-04 23:41:00,65.3,35.5,29.74,West,277,0.0,2.2,33,0.00,,---,0.00,VWS V12.07,2013-08-05 03:41:00,
2013-08-04 23:47:00,65.1,35.3,29.74,NNW,328,0.0,0.0,33,0.00,,---,0.00,VWS V12.07,2013-08-05 03:47:00,
2013-08-04 23:53:00,64.9,35.2,29.74,NNW,335,0.0,3.6,33,0.00,,---,0.00,VWS V12.07,2013-08-05 03:53:00,
2013-08-04 23:59:00,64.8,35.0,29.74,South,187,2.7,3.6,33,0.00,,---,0.00,VWS V12.07,2013-08-05 03:59:00,